Location: Moscow
(55.7500°N, 37.5830°E)
Time: 02:38:38
(UTC+03:00)

Kosmos-337 - Pass Details

Date: 09 July 2022
Orbit: 1467 x 1552 km, 74.0° (Epoch: 13 August)

Event Time Altitude Azimuth Distance (km) Brightness Sun altitude
Rises 22:50:05 0° 325° (NW) 4,736 ? -8.8°
Reaches altitude 10° 22:53:14 10° 331° (NNW) 3,751 ? -9.0°
Maximum altitude 23:02:10 51° 46° (NE) 1,885 ? -9.5°
Drops below altitude 10° 23:10:57 10° 121° (ESE) 3,703 ? -9.9°
Enters shadow 23:13:04 - 125° (SE) 4,365 ? -10.0°
